GFSSW_prec_cthk_057.txt.gz
RH
12 10 11 12 12 13 13 13 12 10 10 8 7 6 6 7 12 14 18 26 31 33 34 31 32 28 30 34 37 39 43 47 47 46 41 34 31 36 43 46 45 40 27 25 35
14 12 11 13 14 14 14 13 12 11 10 8 7 6 5 5 7 11 15 20 26 31 33 33 30 29 29 35 34 36 39 35 36 42 38 39 29 32 40 45 47 46 36 35 38
16 14 12 14 14 16 15 14 13 12 10 8 7 6 6 5 9 9 10 15 21 27 30 31 29 26 28 32 33 32 33 30 33 35 36 39 30 30 36 45 42 43 40 43 40
16 16 14 13 14 16 16 15 14 13 11 10 7 7 6 6 15 13 10 13 17 21 26 27 27 25 27 30 30 30 28 32 33 31 32 36 31 32 34 35 36 39 38 44 50
17 17 17 15 13 16 17 15 14 13 12 11 9 8 6 8 11 15 14 11 12 15 20 24 25 26 24 25 26 28 27 32 31 31 26 27 31 33 35 35 37 39 40 45 47
18 17 18 18 16 14 17 16 14 13 13 12 10 8 8 6 11 10 11 12 8 9 13 17 21 21 23 23 23 22 24 31 33 32 28 26 35 35 32 34 35 39 42 45 44
18 18 18 19 17 17 16 18 14 14 14 12 12 10 8 6 7 8 9 8 9 9 10 15 17 18 20 25 27 24 26 30 33 31 33 28 29 33 31 31 33 38 44 45 44
16 19 18 19 18 19 19 18 16 15 15 14 13 11 9 7 6 6 6 6 9 10 10 13 15 15 14 24 27 25 25 28 29 29 28 28 27 28 31 29 31 39 43 50 50
13 16 18 19 18 20 20 21 21 18 16 15 14 12 10 7 7 8 6 6 9 11 11 12 13 14 12 17 25 28 27 25 26 26 27 28 27 25 28 30 29 38 41 47 52
11 12 15 18 21 19 19 20 22 22 19 16 16 15 11 11 9 8 7 7 8 9 11 12 11 12 12 12 20 28 25 26 26 24 28 27 21 24 25 27 27 36 41 44 50
11 11 11 14 18 22 22 19 20 21 21 20 20 18 14 13 11 9 8 8 7 7 8 10 11 11 9 10 14 23 22 21 21 23 26 24 23 22 24 27 27 33 40 44 50
13 11 11 11 12 16 21 25 23 22 22 20 20 18 17 15 15 13 8 8 8 8 9 9 8 7 10 10 13 22 22 18 19 20 25 24 23 25 26 26 26 30 39 44 49
16 14 11 11 11 12 13 20 22 24 21 20 18 17 16 16 16 16 14 10 7 7 8 8 8 11 11 11 14 20 20 17 20 22 21 22 22 25 30 31 28 32 38 45 48
16 16 15 11 11 11 12 14 16 18 20 15 16 14 11 15 14 19 17 14 11 7 8 8 10 12 13 13 13 19 17 18 22 24 21 20 23 23 31 31 33 35 40 48 55
24 16 16 15 11 11 13 14 14 14 14 9 10 11 12 13 12 14 16 16 14 10 9 8 11 13 13 11 12 12 15 17 16 17 19 19 21 23 30 31 34 42 51 62 66
22 23 16 16 14 12 13 15 15 17 15 11 11 12 12 13 12 12 13 14 14 14 10 8 10 13 12 12 12 11 11 14 17 17 19 19 23 25 34 36 45 55 64 86 82
19 21 21 16 16 15 14 16 18 20 12 11 12 13 13 13 12 12 12 12 12 14 14 9 8 12 12 13 13 13 13 13 13 18 17 19 24 35 38 39 46 49 48 48 47
20 20 21 17 16 17 17 18 19 14 14 13 12 13 14 13 13 13 12 13 12 12 16 16 12 8 13 13 13 14 13 14 12 17 17 19 22 50 44 42 44 44 44 49 39
22 22 21 18 15 18 20 22 17 15 14 13 14 14 16 15 14 13 13 13 12 12 13 17 15 9 11 13 14 15 15 12 15 15 16 19 44 51 47 44 43 47 44 39 36
23 23 21 18 17 17 23 22 18 15 15 14 17 17 18 18 17 16 14 14 13 14 14 14 15 12 12 13 15 17 17 16 15 17 19 22 37 54 51 41 44 46 42 38 35
27 27 24 21 18 19 24 23 19 15 15 15 18 20 20 20 19 17 18 18 17 16 14 14 16 13 14 16 17 20 18 18 17 19 24 27 34 37 46 45 46 43 39 34 32
28 37 26 25 20 22 23 22 19 17 16 15 15 18 21 22 20 18 20 20 19 17 15 15 16 17 17 18 19 19 17 18 21 19 27 29 31 35 42 45 44 40 37 33 33
23 39 37 30 33 28 24 21 18 17 17 17 15 18 21 21 21 20 20 20 23 22 20 17 18 17 17 18 19 22 21 22 24 25 29 30 32 37 44 44 44 43 36 35 39
28 52 44 43 36 35 30 25 19 17 18 18 17 20 19 22 22 20 21 20 23 24 23 19 21 19 18 18 20 22 23 24 25 28 31 30 31 39 41 44 39 35 37 38 36
25 43 51 48 43 40 37 32 26 23 21 18 20 23 20 20 23 22 22 21 22 24 27 26 20 21 20 19 21 21 21 23 26 27 29 28 36 34 32 33 34 35 33 33 30
32 48 39 53 50 46 42 38 36 27 23 23 21 25 23 21 21 25 23 23 22 24 26 32 32 28 22 21 20 20 21 22 24 28 30 36 38 34 32 33 32 34 35 34 29
28 39 49 48 50 44 39 43 40 39 29 26 27 27 29 29 24 24 25 23 23 22 24 31 34 37 30 27 23 19 19 20 21 25 31 37 33 34 35 34 33 36 36 39 38

GFSSW_prec_cthk_060.txt.gz
RH
14 11 9 10 10 11 12 12 12 11 10 9 7 6 6 6 10 13 20 27 31 34 31 29 29 29 34 39 39 39 43 37 34 36 34 36 37 38 42 44 43 46 50 44 44
16 13 10 10 12 12 13 13 13 11 11 9 7 7 6 6 6 8 13 22 26 32 32 30 29 27 33 36 38 36 37 33 29 36 30 33 36 36 40 43 45 47 47 52 52
16 16 11 10 12 13 14 14 14 12 12 11 8 6 6 6 9 9 10 15 22 26 30 30 29 25 31 31 32 35 32 30 28 29 28 31 36 34 37 41 42 43 47 54 52
15 16 15 11 13 13 15 15 14 14 13 12 10 7 6 7 14 12 9 10 17 22 26 28 27 24 27 29 30 32 31 30 31 29 27 29 29 30 32 34 36 42 45 47 48
18 15 16 14 12 13 15 15 15 14 14 14 12 9 8 7 12 14 11 11 14 17 23 26 26 23 24 29 27 28 30 32 34 31 29 28 26 27 29 31 33 43 49 43 46
18 19 17 17 14 12 14 16 15 14 15 14 12 11 8 8 9 12 12 12 11 12 15 19 23 24 21 25 23 25 26 32 32 32 32 30 31 25 25 30 34 41 49 50 48
16 17 18 17 17 15 13 16 17 16 15 15 13 12 11 8 8 9 9 10 10 10 11 16 19 21 19 21 20 21 23 26 25 29 30 31 34 27 24 28 32 39 48 52 48
12 15 18 19 19 18 17 15 17 16 16 15 14 14 12 9 8 8 7 8 9 10 10 12 16 17 18 19 22 21 26 27 27 25 26 31 33 26 25 27 32 38 45 53 51
11 12 14 17 17 17 17 18 18 18 16 16 16 15 14 10 9 8 7 7 7 10 10 10 13 14 16 16 21 27 32 28 24 24 23 27 33 28 27 26 31 36 43 51 55
11 11 12 14 18 19 17 17 18 21 22 19 18 17 15 13 11 10 8 7 8 10 10 10 11 13 14 15 15 25 31 23 22 25 23 25 29 28 27 27 30 35 42 49 56
15 12 11 11 13 17 18 19 17 19 23 23 23 20 18 16 13 12 9 8 8 9 9 10 11 12 13 13 13 17 28 20 22 22 21 25 26 25 26 28 28 35 43 48 58
17 15 12 11 11 13 16 21 21 20 19 20 20 20 19 16 14 14 12 9 9 9 9 10 11 11 12 10 12 13 22 18 19 21 22 24 22 26 22 24 29 35 46 52 60
22 17 16 13 11 11 12 17 20 22 23 20 17 19 22 18 15 17 15 13 10 8 8 10 9 9 10 11 11 12 17 18 18 22 23 22 20 23 25 33 33 36 46 53 63
25 24 17 16 14 11 12 14 15 18 22 20 21 20 19 17 15 16 18 15 14 11 8 8 8 9 12 12 13 12 16 19 17 22 21 20 21 22 33 41 39 42 43 49 55
18 23 25 19 16 14 13 14 15 15 16 12 13 14 14 13 12 12 18 17 16 15 11 8 9 12 12 12 13 12 15 19 19 20 20 17 21 20 33 44 44 41 39 40 43
25 19 22 24 20 16 15 15 16 18 16 11 11 11 11 11 12 12 15 15 16 16 14 10 10 11 12 13 13 12 14 17 20 20 19 16 22 22 34 40 44 43 39 38 37
27 22 20 20 22 20 17 18 20 21 12 12 13 12 13 12 13 14 13 13 15 16 14 14 10 10 12 13 13 13 14 16 16 16 18 19 23 23 35 33 39 42 42 41 40
26 24 22 21 20 22 19 22 21 15 14 14 13 14 15 14 13 14 14 13 13 13 14 15 15 9 10 13 15 14 14 16 13 15 15 18 20 25 37 38 39 42 42 40 42
30 26 24 20 18 22 22 25 22 17 16 14 14 15 16 16 15 14 14 13 12 13 12 16 15 13 9 11 15 16 16 15 18 18 16 16 34 31 39 41 42 43 45 43 39
36 29 27 23 21 21 26 26 21 17 16 15 15 16 17 18 17 17 16 15 13 13 13 13 14 14 13 12 14 15 16 18 20 18 14 17 29 37 45 43 42 42 41 39 34
38 30 32 25 23 23 28 26 21 19 16 16 17 17 17 18 19 17 18 18 18 16 15 14 14 14 15 15 16 17 17 19 21 21 19 19 24 26 37 41 41 41 40 35 35
34 35 34 28 25 26 27 24 21 19 19 17 16 15 17 19 20 19 20 19 19 18 16 16 16 14 15 15 16 16 18 21 23 19 26 25 23 22 30 38 40 43 41 36 34
31 32 39 32 30 25 24 23 21 20 20 18 18 16 16 20 20 21 21 20 20 22 22 17 18 16 16 17 18 18 21 24 24 26 30 27 23 26 30 34 38 42 42 38 34
34 40 43 38 35 34 32 28 25 20 19 18 17 17 17 19 21 22 22 21 22 22 23 21 22 18 17 16 19 22 23 25 26 28 29 28 26 25 30 34 35 36 37 35 38
48 47 46 52 44 41 38 35 29 24 22 23 20 17 19 20 19 22 25 23 22 24 26 27 25 23 20 19 20 20 22 24 24 26 28 27 29 28 29 32 33 35 37 36 37
43 55 53 51 54 50 47 44 38 28 26 24 22 19 23 23 20 21 24 26 23 23 26 30 31 30 24 23 23 21 21 23 25 26 26 30 31 29 30 30 32 33 35 35 37
28 52 48 42 55 48 46 46 42 38 31 28 25 25 26 28 26 23 22 24 26 25 25 29 33 34 31 32 27 25 22 23 25 27 30 29 27 28 31 34 32 30 30 33 36

GFSSW_prec_cthk_063.txt.gz
RH
15 13 9 8 8 9 10 12 12 12 11 10 8 7 5 7 8 13 22 22 24 28 28 29 33 38 38 36 39 40 38 30 23 24 27 32 35 39 46 50 52 47 52 46 41
14 15 12 9 9 10 11 12 13 12 12 11 9 7 6 5 5 6 13 21 23 25 27 28 27 31 36 33 37 39 35 29 28 24 26 30 31 34 39 47 52 50 47 43 40
14 15 14 10 9 11 12 14 14 13 12 11 11 8 7 6 8 9 8 13 21 23 25 25 26 27 31 31 33 36 31 29 30 26 26 28 26 29 34 41 47 46 44 44 41
14 14 15 14 9 10 12 13 14 14 13 13 12 10 8 7 14 12 9 9 15 22 26 24 23 26 26 28 30 32 30 31 33 30 23 22 23 25 29 33 41 44 42 47 45
17 17 13 14 13 9 11 14 15 14 13 13 13 11 10 9 10 14 11 8 12 17 22 25 22 24 24 26 27 30 32 31 31 34 28 26 26 24 26 30 34 42 43 48 50
17 16 16 13 14 12 11 12 15 15 14 13 14 13 11 9 11 12 13 11 11 13 16 20 21 20 21 23 25 27 29 29 33 36 34 30 29 25 26 28 31 37 45 47 53
12 15 16 17 16 16 13 11 13 15 14 14 16 14 13 10 9 11 10 11 11 9 12 15 19 20 20 19 22 22 26 27 29 27 28 28 31 30 27 31 33 37 45 48 53
10 11 14 16 18 18 16 14 11 14 15 15 15 15 14 12 10 8 10 9 10 11 11 11 13 17 19 19 18 21 24 23 25 25 26 27 26 29 26 31 32 36 41 51 52
11 10 11 13 16 17 17 17 17 13 16 17 17 17 16 14 11 9 8 7 8 9 10 10 10 12 15 17 17 20 22 23 26 23 26 20 19 27 29 28 32 34 39 48 53
15 12 11 11 12 16 17 17 17 18 18 18 19 18 17 16 15 12 11 8 7 7 9 11 11 11 13 14 17 18 22 17 20 26 24 22 25 27 26 29 32 37 43 50 54
20 16 14 11 11 12 13 18 20 19 20 21 22 19 19 19 16 15 13 10 8 8 9 10 11 12 11 13 14 14 15 16 21 26 24 24 25 24 27 33 32 34 41 47 51
23 23 17 15 12 11 11 15 20 21 20 19 21 23 20 19 18 16 14 13 10 9 9 10 10 11 11 13 14 13 12 12 19 26 23 24 25 29 30 29 31 34 40 43 43
17 22 24 19 16 13 11 12 16 20 22 20 19 20 21 18 18 17 16 15 13 11 9 9 8 9 10 12 12 11 11 10 15 22 22 21 23 28 33 32 31 34 37 41 40
23 19 20 23 21 17 14 13 14 15 18 18 21 20 19 19 18 19 17 15 15 14 13 9 7 8 10 9 12 11 11 10 14 19 20 21 19 25 37 40 38 35 35 36 38
29 25 20 19 22 22 18 15 14 15 14 12 14 20 20 19 18 20 19 17 16 16 15 13 9 8 9 10 12 12 12 12 15 21 18 18 18 19 30 31 38 38 36 36 41
22 30 26 21 21 22 22 19 18 17 15 11 12 12 14 16 16 16 15 14 16 17 16 15 11 9 9 11 12 13 13 14 17 18 15 16 20 19 22 25 30 34 35 39 46
23 25 31 26 22 21 22 26 23 20 12 12 13 13 12 11 11 11 12 13 15 18 16 16 15 12 11 11 13 14 14 15 15 17 15 19 18 17 19 24 27 37 37 40 46
31 24 33 29 24 21 24 27 29 19 14 14 13 14 14 13 12 12 12 14 15 16 16 16 16 14 12 10 14 15 15 15 16 15 14 17 14 12 22 26 30 32 41 39 40
34 34 33 28 25 23 25 29 22 23 18 15 14 14 15 15 15 14 13 14 14 15 15 15 14 14 15 11 12 18 17 16 18 20 16 14 16 15 25 26 33 37 40 40 39
21 39 36 31 26 24 25 25 24 22 20 18 16 16 17 17 17 18 15 15 14 13 13 14 14 14 15 14 12 13 16 18 18 22 20 18 19 14 27 28 34 37 37 39 38
22 28 42 34 27 28 26 24 23 24 21 18 19 16 17 18 18 19 18 19 19 16 14 14 13 14 15 15 15 15 15 19 19 19 19 19 16 16 24 33 34 34 35 37 33
22 34 45 36 29 28 30 27 25 24 21 19 17 16 15 16 19 20 20 20 21 19 16 14 15 14 14 16 15 15 16 17 16 23 22 20 15 13 16 24 32 34 36 37 33
19 44 43 38 31 28 28 27 25 24 22 20 19 17 16 16 20 21 21 21 22 25 22 17 18 16 16 16 17 16 16 17 20 21 27 21 18 19 21 23 26 31 38 39 33
21 50 44 38 37 33 31 30 29 26 23 20 19 18 19 17 19 21 21 22 23 24 24 21 21 20 16 17 17 20 19 20 23 24 27 23 22 21 23 25 27 32 34 36 36
26 47 55 46 39 41 39 37 33 29 24 22 21 19 18 20 19 20 24 23 23 26 28 27 27 23 21 19 19 20 20 22 24 26 24 26 26 26 29 30 31 35 40 42 42
24 46 60 46 54 53 47 46 41 37 28 26 27 24 20 20 19 20 21 25 25 25 27 28 30 29 24 22 22 21 21 23 24 25 25 27 28 33 32 31 31 33 37 40 44
28 48 60 53 56 56 51 49 46 43 33 31 29 26 22 20 22 23 22 23 25 27 27 30 31 32 27 29 26 24 24 24 26 29 30 27 31 31 28 29 33 34 34 35 39

GFSSW_prec_cthk_069.txt.gz
RH
14 14 12 10 7 6 7 8 9 10 10 10 10 8 7 5 7 11 15 17 18 23 27 34 39 39 38 41 39 35 43 24 25 28 29 28 36 32 32 42 40 41 49 51 50
14 13 13 12 10 7 6 7 8 10 10 10 9 10 7 6 5 6 8 13 16 17 21 29 39 39 38 36 36 34 34 26 26 26 27 27 28 37 37 51 45 43 44 49 50
13 13 12 12 12 10 7 6 8 10 10 11 10 10 9 7 8 13 9 7 13 16 20 26 30 34 34 32 31 35 34 29 26 23 25 28 30 31 42 47 53 46 45 48 52
13 13 12 12 12 12 10 7 7 9 11 11 11 11 10 9 15 16 9 7 6 15 21 21 23 26 30 33 33 30 31 30 27 25 26 32 30 32 32 41 39 42 43 46 52
9 11 13 13 12 12 12 10 7 8 11 11 11 12 12 13 10 9 11 8 5 11 20 22 20 21 23 30 31 32 32 29 27 26 28 28 34 31 30 31 30 40 41 43 51
8 8 9 12 14 14 13 12 9 7 10 12 11 12 14 13 13 10 12 9 8 9 15 18 19 21 18 21 23 32 28 26 27 27 30 28 31 29 34 28 31 34 38 42 46
13 10 8 8 9 13 15 14 13 8 8 12 12 13 14 14 14 14 14 12 11 11 12 14 16 16 16 20 20 19 25 29 25 26 28 21 28 48 37 29 31 32 34 38 43
15 14 13 10 8 8 10 15 15 14 9 9 13 13 16 15 15 16 17 14 12 12 11 10 10 12 13 15 17 17 19 24 22 27 25 21 24 27 31 34 32 32 32 33 40
15 16 15 14 12 10 8 8 13 17 15 10 11 15 14 16 15 14 17 15 14 11 11 10 9 10 11 12 13 16 23 20 22 24 20 24 23 22 30 34 34 32 32 34 41
12 13 14 16 15 13 11 9 8 12 18 18 15 13 14 14 15 16 16 15 14 12 10 10 9 10 11 12 14 16 20 21 20 20 20 22 23 21 28 31 35 32 34 35 40
17 15 13 14 15 15 14 13 12 15 15 20 22 18 13 15 17 17 18 17 17 14 12 11 11 11 13 16 16 16 16 20 23 20 21 18 24 23 27 27 30 33 33 35 39
15 18 17 16 15 15 16 18 17 14 13 14 21 20 20 16 16 18 19 19 19 17 14 12 12 12 12 14 15 14 12 12 13 16 17 18 21 22 27 31 30 35 33 36 38
14 13 17 18 18 17 16 18 17 16 14 10 12 18 22 19 17 17 20 21 20 19 16 13 13 15 13 14 12 11 13 14 16 16 15 18 22 21 23 23 27 28 33 34 38
14 15 17 16 23 21 20 19 18 18 18 12 11 11 20 20 19 18 19 21 21 19 18 17 16 14 13 12 10 11 13 14 12 12 14 16 19 21 23 31 31 28 30 37 36
13 16 19 19 19 24 22 19 19 21 21 14 11 13 12 18 16 19 19 21 21 19 19 18 18 16 13 11 9 10 13 14 12 13 13 14 20 16 24 24 28 33 29 32 35
17 14 19 25 22 22 24 21 22 23 25 16 15 13 12 13 19 18 17 20 20 20 22 21 19 19 17 13 9 10 12 12 12 14 14 15 17 17 20 27 27 44 29 27 30
20 17 18 24 26 23 23 23 28 25 17 20 16 15 13 12 15 21 20 19 18 18 19 21 20 19 15 14 13 12 12 15 17 16 13 13 17 17 16 18 24 29 28 26 34
20 17 20 30 32 24 23 23 27 22 21 20 18 15 15 13 13 17 20 20 19 19 19 20 21 20 19 14 15 15 14 15 19 17 15 18 18 16 16 18 20 18 23 28 36
23 18 24 36 39 29 26 23 23 30 28 25 22 18 18 15 16 15 16 17 19 20 20 20 20 18 19 19 16 15 17 15 16 17 18 17 16 16 18 19 16 21 24 26 36
22 27 22 30 31 34 28 27 26 33 34 28 28 23 18 16 17 17 16 15 14 14 16 18 21 17 18 19 16 15 15 18 16 21 21 16 17 16 20 21 32 31 24 28 37
19 26 33 30 27 23 26 30 33 32 34 31 27 25 21 21 24 21 17 16 16 14 15 17 18 18 17 17 16 17 15 16 17 16 17 18 16 18 23 22 26 29 30 40 40
27 26 33 26 31 26 22 34 35 33 32 29 28 27 30 28 27 24 22 21 23 18 17 17 18 20 19 16 17 16 18 17 18 19 19 20 17 16 19 27 25 43 37 45 44
36 29 33 26 32 29 26 33 34 33 34 31 30 27 23 25 26 22 27 31 28 23 25 19 18 20 19 17 16 17 18 19 19 19 21 23 25 22 29 31 23 35 37 43 44
37 35 45 29 29 34 41 35 37 33 31 29 29 29 25 23 22 24 30 28 25 30 25 27 22 21 17 18 16 19 17 17 18 22 20 18 16 30 35 32 28 30 39 41 38
38 37 49 46 38 35 45 49 48 43 38 37 31 26 27 26 24 23 24 30 28 23 24 24 26 26 23 22 29 20 17 16 16 19 20 23 36 58 53 40 30 31 39 38 40
48 47 51 44 43 44 49 49 50 53 51 49 42 31 29 25 23 23 26 28 29 28 27 30 32 37 30 20 23 20 20 20 18 17 18 19 40 39 48 42 31 32 32 36 41
46 32 36 39 47 53 56 53 59 57 52 47 45 40 35 37 28 23 27 33 35 40 39 39 35 39 26 25 21 21 19 18 19 21 20 37 63 57 45 40 39 39 39 40 38

GFSSW_prec_cthk_072.txt.gz
RH
13 12 12 12 10 7 5 8 9 10 10 9 9 9 7 6 5 7 9 13 17 26 25 29 32 34 35 36 40 42 41 34 22 24 25 24 27 38 35 47 37 33 40 43 46
14 13 12 12 12 11 7 6 7 8 10 10 9 9 9 6 6 5 5 8 11 17 21 27 34 35 33 39 38 38 40 29 23 24 24 25 26 30 39 56 64 38 36 39 45
13 14 12 12 11 11 11 7 6 6 8 10 10 9 9 9 9 11 9 7 7 10 14 21 31 30 33 34 34 33 34 30 25 24 24 24 30 31 34 42 48 46 35 36 44
8 9 11 13 12 11 11 10 7 6 7 9 10 10 10 9 16 17 13 9 7 6 12 19 24 29 29 34 32 30 31 30 28 24 25 31 26 28 31 37 49 42 33 36 43
8 7 7 8 11 13 12 11 11 7 6 8 10 10 10 11 13 13 9 9 7 5 12 19 20 22 27 31 32 31 29 31 28 26 26 25 33 36 28 34 31 35 33 36 44
12 10 9 8 7 8 11 14 13 11 8 6 9 10 11 12 13 13 10 10 7 6 11 18 20 20 23 23 26 27 28 30 29 27 25 26 27 31 37 38 34 35 31 37 43
15 14 13 11 9 8 7 8 12 14 12 8 7 10 11 13 13 16 15 13 10 9 11 14 18 17 19 16 19 22 22 20 24 25 24 26 24 30 33 37 39 40 34 41 47
12 14 15 14 12 11 9 8 7 10 14 14 8 7 12 12 14 14 18 17 13 13 13 14 13 11 12 13 15 17 18 19 21 23 25 23 23 28 33 35 39 42 38 44 47
12 11 10 11 13 14 13 11 9 8 9 14 14 11 11 13 14 15 17 20 17 15 13 12 10 9 11 11 12 13 13 21 21 20 24 23 22 23 24 38 40 42 39 43 46
13 13 13 12 11 11 13 13 12 11 9 9 14 17 12 10 15 14 17 21 21 19 14 12 11 9 10 12 13 17 15 17 21 20 22 19 20 21 22 27 35 40 39 40 45
9 10 12 13 13 13 11 11 15 18 17 12 13 18 16 14 12 13 16 18 19 19 17 13 12 11 11 14 17 16 16 16 17 21 21 20 20 18 23 26 29 40 38 39 42
10 11 12 11 11 14 15 14 14 16 13 14 13 16 16 18 15 14 16 17 18 18 18 16 15 12 13 16 17 17 19 15 14 17 18 16 17 18 21 26 31 37 45 39 43
13 11 12 13 11 12 16 16 16 14 14 12 12 11 14 20 18 17 17 17 18 18 19 19 17 14 14 15 14 16 13 12 16 17 16 15 16 16 21 23 25 23 43 42 42
17 15 12 14 14 14 16 18 18 17 17 11 11 12 11 14 19 16 17 19 19 21 23 21 19 16 14 15 15 17 13 14 15 15 15 14 15 18 21 23 28 28 28 43 39
20 16 14 12 14 15 16 17 19 20 24 12 11 10 12 11 14 15 18 18 20 20 22 20 20 18 16 15 14 14 11 13 14 15 16 15 15 14 19 23 30 35 42 42 40
26 20 17 14 15 16 16 19 20 26 25 14 12 14 13 15 13 16 17 18 18 19 22 22 20 18 17 17 16 14 10 11 14 13 15 15 15 16 19 23 28 35 49 42 40
29 23 16 12 16 18 18 21 25 26 20 17 13 17 14 15 16 17 19 17 18 19 21 19 21 20 18 18 17 15 11 15 18 17 16 14 14 15 19 24 27 35 42 42 26
29 22 16 12 17 24 23 28 30 23 22 18 22 19 17 13 14 15 18 18 17 17 18 20 21 20 20 19 18 16 15 15 19 17 17 18 16 16 18 18 20 21 33 30 22
27 19 18 19 20 27 29 30 28 23 22 32 28 26 20 17 15 14 14 19 19 18 19 19 19 18 19 19 18 17 18 16 15 15 17 18 22 20 18 17 16 23 23 21 23
30 18 17 23 23 25 29 31 28 24 26 34 34 28 26 19 17 17 16 15 18 19 18 20 21 18 18 18 19 18 17 18 17 21 22 18 19 18 19 20 21 28 28 25 26
34 22 26 25 24 27 26 22 27 26 26 33 35 31 27 24 22 25 23 19 19 15 15 17 20 20 19 20 20 18 19 18 16 17 18 19 18 19 23 24 30 44 40 25 30
32 26 28 29 26 30 30 23 21 27 32 32 31 30 27 26 33 32 29 31 26 20 15 14 14 17 18 18 21 18 17 16 17 19 20 22 20 28 23 22 28 29 39 31 37
31 27 25 33 26 33 37 35 23 24 28 31 31 33 28 29 30 31 30 33 32 25 26 22 17 19 19 21 20 17 16 17 19 19 21 23 19 22 32 41 39 54 50 38 43
30 27 33 44 31 29 37 36 36 30 30 30 29 31 31 29 27 26 28 35 34 33 33 26 24 26 21 21 21 21 17 16 17 23 23 19 33 37 44 44 41 54 43 42 45
33 29 35 68 61 45 36 34 39 45 45 32 36 32 29 28 28 26 25 29 33 31 27 30 30 32 22 22 20 22 26 20 17 20 21 27 42 42 44 44 62 64 52 42 39
37 34 41 41 48 45 45 40 43 50 59 54 53 46 36 36 29 29 27 24 29 33 31 26 31 33 29 26 26 25 24 27 24 16 15 17 38 35 39 47 45 56 55 49 46
32 38 39 30 40 49 59 54 47 55 58 60 55 52 49 34 41 36 25 26 28 35 40 35 42 32 32 33 31 30 26 26 23 20 22 24 43 58 63 57 51 52 52 44 42

GFSSW_prec_cthk_075.txt.gz
RH
14 13 12 12 11 10 7 6 7 8 8 9 10 9 8 6 5 5 5 8 13 22 23 23 30 30 35 38 42 46 45 36 27 24 24 27 30 41 38 40 45 39 36 36 43
13 14 13 12 11 11 10 9 6 7 7 8 9 9 9 7 6 5 4 5 7 12 22 21 24 34 35 37 37 43 41 33 29 25 23 25 28 37 37 41 40 45 37 40 39
7 7 9 11 12 11 11 10 9 6 6 7 9 9 9 9 8 15 10 8 8 7 10 18 22 31 32 33 33 36 34 33 28 28 24 25 32 35 42 41 36 36 34 36 35
7 7 6 6 7 10 12 11 10 10 6 6 7 9 9 9 12 17 11 9 7 7 5 9 19 24 31 29 30 37 33 30 29 31 25 27 26 30 38 37 38 37 32 33 35
12 10 9 7 7 6 7 10 11 11 10 8 6 8 9 8 10 10 12 10 8 8 5 8 16 22 24 25 28 32 32 28 29 30 27 28 24 32 37 38 41 45 36 35 35
16 15 13 12 10 8 7 6 8 10 11 11 9 6 8 10 9 13 12 11 9 8 5 8 16 18 22 22 23 24 24 24 27 25 26 27 28 30 34 39 41 43 43 37 35
10 12 14 15 14 13 11 9 8 7 9 11 10 9 6 10 9 13 15 12 12 9 7 9 14 18 20 18 16 17 19 18 19 22 25 27 27 26 32 34 36 40 40 38 37
12 12 11 10 9 11 14 13 11 9 8 7 10 11 10 7 9 10 15 15 15 14 10 10 13 15 12 13 12 13 14 15 15 21 23 25 25 25 29 32 41 42 41 39 41
7 9 10 11 11 10 10 9 11 11 9 8 7 9 12 12 8 10 12 15 20 17 15 14 14 13 10 10 11 10 12 15 18 21 22 23 24 21 26 36 38 40 41 43 42
8 8 8 9 9 9 11 11 9 9 11 10 8 10 9 13 12 10 11 14 19 22 20 17 13 13 10 11 13 12 14 17 17 19 21 22 24 20 20 30 34 39 41 42 40
16 12 9 9 11 10 9 11 11 10 12 13 14 10 9 12 15 14 11 12 17 22 21 20 17 14 12 11 12 14 17 17 17 16 19 22 21 20 19 21 32 37 40 41 46
18 17 14 10 12 11 12 12 13 13 11 9 9 11 10 14 16 14 14 12 15 19 19 20 18 14 12 12 14 17 18 19 17 17 18 20 21 20 19 19 24 33 38 38 51
22 20 16 14 12 14 15 14 13 14 12 10 9 8 9 11 14 16 15 14 15 18 19 17 15 16 15 14 14 16 17 16 16 14 17 18 19 17 13 18 21 30 31 41 42
23 23 20 16 13 14 15 13 13 14 14 10 9 7 8 9 10 16 17 19 19 18 19 19 15 16 17 18 16 17 16 16 13 15 15 14 17 15 15 18 22 25 30 40 45
25 24 24 18 14 13 14 13 13 14 23 11 10 13 12 13 9 11 16 20 19 19 20 18 20 19 21 17 15 16 15 14 13 14 16 16 17 13 15 17 20 25 31 40 45
25 24 23 22 15 15 15 14 15 18 22 11 11 14 17 16 13 11 13 18 20 19 20 21 21 22 22 19 17 16 16 15 12 14 17 13 16 12 16 17 19 26 38 42 50
23 23 25 21 15 13 16 15 19 21 15 14 18 17 19 20 16 14 13 17 21 19 18 20 21 21 21 21 19 18 18 20 18 18 17 16 17 16 17 21 25 29 35 39 45
23 22 22 17 16 14 17 20 24 19 19 20 26 26 24 19 16 15 16 16 21 20 19 19 20 19 19 21 21 20 19 21 18 23 20 19 22 20 16 22 24 29 33 36 40
25 25 18 15 18 17 21 23 22 24 24 25 31 28 26 23 21 17 18 16 17 18 21 21 20 18 20 20 20 22 20 17 19 17 20 18 19 19 21 24 27 28 27 31 35
24 24 20 19 18 18 22 25 23 26 26 27 29 30 30 25 27 25 26 22 25 18 20 22 22 18 18 19 19 20 19 20 21 23 24 21 22 26 24 29 34 33 32 30 35
27 24 22 24 23 20 23 20 20 22 25 29 30 31 29 29 30 29 29 26 29 26 26 32 25 23 20 19 21 21 22 21 21 21 22 25 23 25 24 26 28 31 36 36 39
27 28 25 26 26 25 25 29 31 23 24 25 28 30 29 31 30 28 30 32 31 30 28 28 32 30 23 21 20 21 22 22 26 22 24 23 22 29 27 25 28 32 34 38 36
28 26 24 23 26 25 25 31 39 34 25 26 25 28 27 30 30 28 28 26 32 33 39 32 32 33 20 18 19 19 24 24 23 22 19 24 27 36 35 32 33 45 46 44 41
27 29 27 24 31 35 31 32 41 37 38 32 26 22 24 24 28 28 28 27 31 34 34 35 34 36 34 26 21 22 27 24 21 24 19 21 28 36 35 47 44 63 61 84 47
31 32 29 34 40 45 51 46 37 32 36 40 38 30 37 33 31 28 28 28 35 37 36 41 37 36 31 24 24 29 30 23 21 20 23 23 37 38 37 43 52 60 55 68 72
34 28 27 28 32 50 50 53 49 42 42 45 50 45 47 46 37 32 31 30 35 33 37 44 41 40 34 28 32 43 35 34 31 33 26 27 40 42 37 44 51 52 47 50 78
35 31 30 35 28 38 45 59 67 54 48 54 57 56 55 53 43 43 37 38 32 33 35 41 41 43 41 37 34 39 56 47 46 40 39 48 52 56 47 51 55 59 58 57 59

GFSSW_prec_cthk_078.txt.gz
RH
14 15 14 13 12 11 10 8 6 7 8 8 8 8 8 6 5 5 4 5 12 19 21 27 26 28 40 42 42 42 46 45 41 30 26 30 33 41 44 43 49 45 36 34 36
6 7 8 10 12 12 11 10 9 6 6 7 8 8 8 7 6 5 7 4 5 8 16 21 24 26 38 38 40 37 40 38 36 31 26 29 34 39 42 44 50 44 42 35 35
7 6 6 6 6 8 10 11 10 10 8 6 7 8 8 8 8 12 11 9 7 6 8 14 20 24 35 35 39 39 35 33 31 32 27 27 33 34 38 42 43 44 46 37 35
11 10 9 8 6 6 6 7 9 10 9 9 6 6 8 8 9 15 12 9 9 7 6 8 13 20 30 34 38 35 31 30 29 30 27 27 30 34 36 36 39 43 41 35 34
15 15 14 13 11 10 8 6 6 8 9 9 9 7 6 8 9 8 10 11 9 8 8 6 6 14 21 28 31 30 27 24 25 24 25 28 25 30 34 34 38 43 39 37 35
11 11 12 13 13 13 13 11 9 7 6 8 9 9 8 7 8 9 12 13 12 9 8 6 7 13 16 22 26 24 21 20 19 20 26 27 27 30 37 34 40 41 40 41 35
6 7 9 9 9 8 9 11 12 11 9 7 6 8 9 9 6 9 11 14 14 12 10 6 7 16 15 15 18 16 18 16 16 21 25 26 25 28 33 34 38 38 42 41 36
6 5 5 6 7 8 8 8 8 8 10 9 8 7 6 10 11 6 8 10 13 14 13 11 12 14 15 12 10 12 13 10 13 22 24 23 23 24 33 35 37 37 41 41 40
18 15 10 7 7 8 7 7 9 8 7 8 9 8 7 7 11 14 7 9 13 15 14 15 14 13 13 12 11 10 10 12 18 21 21 20 21 23 32 33 35 39 43 42 40
19 18 16 14 9 8 9 9 9 10 10 10 9 9 8 7 10 12 11 9 12 18 20 18 17 14 12 12 12 10 10 17 19 19 19 19 22 25 32 31 34 39 44 44 39
19 17 16 15 12 10 10 10 10 11 12 11 10 10 9 7 7 9 14 13 12 18 23 24 21 17 11 11 8 11 14 15 18 19 20 19 21 23 23 30 34 37 41 42 41
19 18 16 16 15 11 13 13 13 13 10 9 9 9 8 8 9 8 12 14 12 14 18 27 23 17 16 13 12 13 14 15 14 15 17 17 19 21 21 22 28 32 38 40 43
21 19 18 16 16 13 14 14 13 13 12 7 6 7 7 8 7 8 12 14 15 15 16 26 19 21 21 16 14 14 15 15 16 14 16 17 18 21 20 19 22 27 30 34 38
24 22 21 17 16 14 13 13 14 13 14 8 9 10 11 11 10 7 13 15 15 14 15 17 21 20 18 18 16 16 16 16 17 15 15 16 18 19 20 19 19 22 30 34 39
24 22 20 21 21 17 14 14 13 13 18 8 10 12 14 15 14 11 9 18 17 16 17 16 20 21 18 16 20 18 18 17 16 15 14 13 16 15 17 16 16 24 29 33 37
22 22 19 22 21 15 15 14 15 16 18 10 13 15 16 16 17 16 13 17 19 20 20 19 18 21 20 19 22 22 21 19 17 17 15 11 15 10 13 12 15 18 28 31 36
23 21 21 20 20 16 14 16 17 18 13 13 16 17 19 23 22 17 14 15 18 22 22 22 20 18 20 23 22 23 23 23 21 21 17 13 16 15 15 14 15 17 24 30 35
23 22 22 18 17 17 16 17 19 17 17 16 17 18 21 25 26 22 19 18 15 18 21 24 23 19 19 21 21 22 23 25 23 23 18 14 17 18 17 17 17 19 22 31 38
21 22 20 17 17 16 17 21 21 21 20 20 19 22 23 27 29 27 27 26 18 18 22 21 21 19 18 18 22 21 25 24 22 23 21 18 18 18 21 24 25 26 32 36 39
22 22 21 20 19 17 18 22 18 16 19 22 23 25 25 28 29 29 28 31 28 29 31 34 32 23 20 19 18 21 22 23 25 24 23 20 21 21 27 31 34 37 36 40 43
26 24 22 24 23 21 22 19 20 22 24 26 26 28 26 28 30 31 29 29 28 31 33 36 30 24 25 24 22 22 25 23 29 25 24 24 21 23 30 29 29 32 37 37 38
28 27 24 24 24 26 26 24 23 24 26 28 26 27 27 28 30 30 31 30 30 31 35 38 34 34 25 22 24 22 24 24 29 27 30 27 23 33 31 33 39 45 41 45 44
27 23 24 24 26 25 28 26 31 34 35 34 33 32 26 28 28 30 30 31 30 33 35 35 39 38 31 26 22 26 25 26 26 29 28 27 24 33 36 36 37 48 52 52 50
25 27 23 23 26 27 33 33 35 37 39 41 38 35 33 29 30 31 31 32 31 34 41 36 39 41 45 41 37 33 29 29 28 34 30 27 24 34 39 33 35 43 51 52 54
28 29 27 28 30 35 36 39 37 42 42 38 36 36 36 38 35 35 33 33 34 34 37 34 38 41 44 42 39 33 31 36 37 38 34 28 28 40 42 44 48 42 45 54 57
31 29 29 29 28 32 39 41 44 45 46 41 43 40 42 45 45 44 41 37 38 35 35 40 40 48 44 48 46 47 38 43 49 55 48 49 47 54 50 45 48 56 57 57 52
35 33 31 29 29 29 35 39 45 52 50 46 45 45 51 51 52 48 43 43 39 36 33 40 48 51 43 46 46 55 57 53 69 64 57 65 67 70 68 74 60 57 63 68 69

GFSSW_prec_cthk_084.txt.gz
RH
7 7 7 8 9 10 11 11 11 9 8 7 7 7 7 6 6 5 5 6 10 15 20 23 28 29 38 40 44 48 49 49 40 31 28 29 41 47 47 49 50 49 46 38 31
10 10 9 8 8 7 7 8 10 10 10 8 8 7 7 7 7 7 7 7 6 8 14 19 24 25 28 33 36 44 46 40 35 29 26 24 32 41 46 51 51 50 47 40 30
11 11 11 11 11 10 9 8 7 7 9 10 10 8 7 7 8 10 10 11 9 7 8 11 16 20 25 27 32 37 38 34 33 30 27 28 27 35 41 46 45 49 48 43 32
10 10 10 10 10 11 11 11 10 9 7 7 9 10 9 7 8 13 12 11 12 10 9 8 8 11 18 25 28 31 32 34 30 30 29 27 30 32 34 35 38 46 49 44 37
10 9 8 7 6 6 7 8 9 9 10 10 8 7 8 10 8 8 10 12 12 13 11 10 9 9 10 17 24 27 27 30 29 28 31 27 27 33 32 32 34 41 50 42 39
13 12 12 10 9 8 6 3 4 5 6 8 9 10 8 6 10 10 7 9 12 13 13 13 10 10 9 11 18 20 21 22 26 30 30 26 23 30 29 31 31 35 47 41 40
16 15 14 13 12 11 11 10 6 5 5 5 6 6 8 9 7 9 10 8 10 11 16 15 15 13 14 14 14 15 15 16 18 24 26 26 20 27 25 29 30 35 41 42 39
15 14 12 11 10 9 9 9 8 8 7 7 8 9 8 6 7 8 8 10 9 10 11 12 16 14 13 15 14 13 12 11 12 16 21 23 21 22 24 30 31 36 41 44 39
15 14 14 12 11 10 10 9 9 9 9 9 8 9 8 7 6 6 8 8 11 10 12 12 17 16 16 18 16 13 13 11 10 9 13 17 19 21 25 28 32 35 41 44 40
14 14 14 14 13 13 11 10 10 10 11 10 11 11 9 8 7 7 8 9 8 11 10 11 17 19 19 21 22 16 12 11 11 10 10 12 15 19 23 26 32 36 40 44 40
15 15 16 15 14 14 12 11 11 11 10 10 10 10 9 8 7 6 7 9 9 10 15 13 17 22 19 19 18 17 15 13 11 10 13 15 16 19 20 26 31 36 37 41 38
18 19 18 15 15 15 13 13 13 13 13 10 10 12 11 10 9 6 7 9 10 11 12 16 19 17 19 20 21 20 17 15 12 13 17 17 17 21 19 23 24 26 36 37 38
21 22 20 17 15 16 15 13 13 13 13 12 13 13 13 11 11 10 10 9 9 11 14 15 16 15 21 23 24 23 22 20 14 18 21 20 20 20 20 24 23 23 29 36 35
24 23 21 17 16 17 15 14 13 13 14 13 14 13 13 13 12 12 12 11 10 10 11 13 14 15 17 22 25 26 24 23 18 18 23 22 23 20 19 20 22 21 25 28 30
25 24 21 19 18 18 16 14 14 14 15 13 14 13 13 14 14 12 13 12 12 11 10 12 13 14 16 18 21 21 26 27 22 20 20 22 24 20 18 17 18 17 19 21 21
24 23 20 21 18 19 17 15 16 17 14 15 15 14 13 14 14 14 14 12 12 13 12 10 12 14 15 17 18 20 22 24 24 24 24 21 22 20 16 15 13 15 15 18 21
22 22 22 20 18 18 16 17 18 18 17 18 16 14 14 15 14 16 17 16 14 14 15 13 12 13 15 18 18 21 24 29 27 28 29 23 19 17 14 14 13 11 16 16 18
23 23 20 18 18 18 18 19 19 19 19 17 16 14 14 15 16 19 21 23 21 18 17 17 14 14 17 19 20 22 25 29 29 29 28 26 23 18 15 16 15 13 15 16 16
25 23 22 22 19 18 19 23 22 20 20 21 17 16 16 16 18 19 23 26 28 31 29 24 18 15 18 19 21 22 26 24 25 27 28 27 25 23 18 18 17 20 24 22 19
26 24 23 23 22 20 19 22 20 20 23 23 22 20 20 19 19 21 25 27 32 36 36 32 29 22 19 22 22 24 24 26 29 42 39 32 28 25 20 20 23 26 30 29 23
27 25 25 24 25 23 22 21 22 26 26 24 25 25 25 23 20 23 27 31 33 35 39 33 33 27 23 22 24 26 26 26 32 37 43 37 31 25 26 37 37 37 34 36 31
29 27 27 26 25 26 24 24 25 27 29 29 28 28 27 28 26 26 29 31 36 40 38 37 39 35 29 30 28 27 29 28 37 40 35 34 26 40 41 42 38 40 43 44 45
29 29 27 26 28 26 25 26 27 28 32 33 33 33 32 33 36 35 33 37 38 40 39 40 40 41 34 35 35 37 35 28 28 34 33 35 27 39 43 43 44 43 47 53 56
31 30 27 27 26 26 25 26 28 30 32 35 33 33 37 40 42 42 41 34 37 41 45 44 47 48 43 43 43 49 40 46 31 35 31 31 27 44 47 47 49 47 48 57 60
33 34 31 30 28 26 25 27 30 31 33 35 37 40 44 44 45 43 40 39 31 35 42 47 45 45 44 48 45 48 54 56 46 29 30 32 43 54 53 53 55 50 51 54 58
36 33 30 30 30 27 27 28 31 32 33 37 42 40 44 47 47 45 44 43 42 34 39 43 45 48 45 45 45 50 51 61 73 60 62 55 58 59 59 59 62 59 57 56 56
38 34 33 32 30 29 27 27 28 28 31 36 39 41 46 47 44 41 41 41 45 46 42 43 46 42 39 38 44 57 66 67 82 71 72 63 62 61 65 64 70 69 68 63 58

GFSSW_prec_cthk_087.txt.gz
RH
9 8 8 8 8 8 9 10 11 11 10 9 8 7 7 7 6 5 5 6 8 13 19 22 25 30 38 41 45 49 44 38 33 30 26 25 25 35 41 47 53 57 53 44 31
9 9 9 9 8 8 8 8 7 8 10 10 9 9 8 8 7 7 7 8 7 7 9 14 21 26 32 34 39 43 42 35 33 31 26 24 23 32 38 44 50 54 52 47 35
12 12 11 10 10 9 9 9 9 8 7 7 9 9 9 9 9 10 10 11 9 9 9 11 14 18 22 27 33 36 32 33 30 32 30 28 25 26 33 38 39 47 52 49 39
12 11 10 9 8 7 8 7 7 8 9 9 8 7 8 9 10 11 12 11 12 12 11 11 11 11 12 16 22 27 27 32 29 30 31 30 29 26 27 30 34 39 47 48 41
13 12 11 10 9 8 7 6 5 4 4 6 8 9 8 7 9 10 8 11 13 12 14 13 12 11 11 10 13 19 22 26 30 28 31 31 30 26 25 25 30 34 39 48 44
13 13 12 11 10 9 9 9 9 8 5 5 4 6 7 9 8 7 10 8 9 12 14 15 14 12 11 11 12 13 18 23 23 24 28 31 30 30 23 23 27 32 35 44 46
12 11 11 10 9 7 7 7 8 7 7 7 7 7 8 6 8 8 7 9 8 8 9 13 16 15 16 15 14 13 12 13 19 22 22 26 29 30 27 21 25 31 36 41 46
13 11 10 10 10 8 8 8 8 8 8 8 8 8 8 8 7 6 9 8 10 10 8 10 14 14 17 16 16 16 14 13 10 13 15 16 18 23 25 25 24 28 35 39 45
12 11 10 11 12 11 11 10 10 9 10 10 10 9 8 8 8 8 7 7 9 9 11 11 14 15 17 16 18 18 16 15 12 10 10 10 12 14 18 20 25 28 32 38 44
14 13 12 12 12 13 13 11 11 11 11 10 11 10 10 10 9 8 8 7 8 9 10 13 14 15 17 17 16 15 16 16 18 13 11 10 9 11 12 16 22 27 31 37 37
16 15 15 16 15 15 13 12 11 11 10 10 10 11 11 11 10 8 7 8 8 9 9 12 14 15 15 15 16 18 18 20 19 15 12 11 12 12 12 14 22 27 31 35 34
19 18 17 17 15 16 14 13 13 13 12 12 12 12 12 12 12 11 9 8 8 9 11 13 13 14 15 16 17 20 21 21 21 17 16 13 12 13 14 14 19 27 30 31 36
22 21 18 17 16 17 15 14 14 14 13 13 13 13 13 12 12 12 11 10 10 11 10 10 11 12 14 16 18 20 23 22 25 22 20 14 13 15 16 16 18 23 26 30 30
23 23 20 18 17 18 16 15 14 14 14 13 14 14 13 13 12 12 12 12 11 11 11 10 10 12 14 15 18 20 21 24 26 26 27 18 17 17 18 18 19 21 23 23 25
23 23 20 20 19 19 17 16 15 16 14 15 15 14 14 14 13 12 12 11 11 11 12 11 11 12 13 13 16 16 19 21 24 25 24 21 20 18 19 19 19 19 20 21 21
24 23 21 21 20 20 18 15 16 16 15 16 16 15 13 13 14 14 14 12 11 11 11 12 12 12 12 13 16 17 19 21 23 23 23 22 20 19 18 18 18 18 19 18 20
26 24 22 19 19 19 17 17 17 16 18 18 17 15 15 14 13 14 15 15 15 15 14 13 13 12 12 13 15 19 21 22 23 25 24 25 21 22 19 18 17 17 17 18 17
26 24 22 20 19 18 18 19 20 21 19 19 18 16 15 15 14 14 16 17 18 22 21 19 17 15 15 14 15 20 21 23 27 26 25 27 22 22 23 17 18 18 19 20 23
26 23 24 23 21 19 20 22 23 21 22 21 19 18 17 16 16 15 16 18 21 25 31 28 23 22 18 16 17 23 24 22 25 27 25 24 24 22 22 18 22 26 23 25 26
27 25 26 25 24 21 21 23 22 23 22 23 23 21 20 19 16 17 18 19 26 30 36 36 33 29 27 23 19 20 22 24 26 32 33 29 29 26 23 25 27 26 27 30 32
29 28 27 26 26 24 23 24 24 26 25 25 25 23 23 22 21 18 19 22 26 32 38 40 39 32 32 31 28 25 23 25 28 32 33 34 28 25 26 34 35 33 33 39 38
30 29 28 28 27 27 25 25 24 27 29 28 27 26 25 26 25 23 24 28 32 35 37 39 40 40 36 33 37 39 39 33 30 33 29 30 25 36 37 39 37 38 40 42 44
33 31 31 30 28 27 26 24 27 27 30 31 30 30 29 29 32 31 32 33 33 37 43 43 41 40 38 38 41 46 46 50 49 35 30 29 26 39 40 45 46 45 47 50 53
34 33 32 31 30 28 27 26 27 28 29 32 32 32 32 33 36 35 33 31 31 31 36 41 40 43 42 40 41 41 47 61 58 49 34 26 25 41 44 47 51 49 51 56 61
37 36 35 33 32 30 27 24 25 27 28 32 34 35 34 36 36 36 35 35 30 35 36 40 42 40 37 39 42 42 42 54 59 66 62 41 36 54 57 56 56 53 50 57 62
41 38 36 35 34 29 26 26 25 27 30 33 35 35 36 38 38 39 38 37 36 36 37 43 45 42 40 37 38 38 45 50 56 59 59 70 64 64 65 63 60 57 53 59 60
44 41 39 37 33 30 27 26 26 25 25 28 32 34 35 36 37 37 32 36 40 41 42 44 46 46 42 33 34 38 57 60 57 55 66 75 76 78 71 71 69 63 61 65 63

GFSSW_prec_cthk_093.txt.gz
RH
9 9 9 9 8 8 8 7 7 7 7 8 9 9 10 9 8 7 8 8 8 11 13 18 26 29 33 36 42 41 41 42 41 36 33 31 28 29 32 42 35 38 47 48 45
11 11 11 11 10 10 9 9 8 8 7 6 7 8 8 8 9 9 10 8 6 5 7 15 19 22 25 31 35 42 46 43 38 37 36 34 30 29 35 42 46 36 41 46 46
11 11 11 10 9 8 7 7 7 7 7 7 6 6 7 8 8 11 10 9 9 8 14 16 17 19 18 23 25 28 35 40 40 38 38 35 29 31 30 33 39 48 39 44 49
9 8 7 6 6 6 6 5 5 5 5 6 6 6 6 7 9 13 9 8 9 10 17 16 15 18 18 16 16 17 18 21 26 27 32 35 30 24 27 30 31 37 39 37 44
8 7 6 5 5 5 5 5 5 5 6 6 6 5 5 9 9 9 8 9 9 12 15 17 18 20 19 16 15 15 14 13 15 18 21 28 30 30 24 28 30 34 40 38 42
9 8 8 7 6 6 6 6 6 6 6 6 6 7 6 7 7 9 11 7 9 13 15 15 15 17 17 16 16 15 14 12 11 10 11 15 19 25 27 28 33 34 39 40 44
9 10 9 8 7 7 8 8 8 8 8 8 8 8 9 8 9 10 11 12 14 13 14 14 14 15 14 16 17 17 17 16 15 14 12 12 13 16 20 24 26 33 39 40 42
9 9 9 9 9 10 10 10 10 9 9 9 9 9 11 10 8 8 9 12 11 9 9 11 11 12 15 14 15 15 15 16 18 18 19 13 11 11 15 17 22 28 36 40 41
10 10 10 11 11 10 11 11 10 10 10 10 12 13 12 9 9 9 9 9 9 10 12 11 11 10 12 15 15 15 13 16 19 19 22 18 12 13 14 14 16 17 18 28 36
14 13 12 13 13 12 12 11 11 10 10 11 12 15 13 12 10 10 10 10 11 10 14 13 12 12 13 14 15 16 18 15 17 19 23 21 19 16 17 16 13 13 14 20 32
17 16 16 16 15 14 12 13 14 16 13 12 13 13 13 12 11 11 10 10 10 10 11 13 15 15 14 16 17 17 16 16 14 17 23 21 20 19 17 17 16 16 14 16 29
20 18 17 17 16 15 14 14 14 14 14 13 13 13 13 12 13 13 11 12 12 11 11 12 13 14 15 14 13 13 15 16 17 18 19 20 24 19 21 22 15 17 20 22 27
21 19 18 18 17 17 17 15 15 14 16 14 14 14 13 12 13 14 12 13 13 13 13 12 11 12 12 12 12 14 16 15 14 17 21 22 25 27 21 21 19 17 20 24 28
22 21 19 18 21 19 19 17 16 15 18 15 15 14 13 13 14 13 12 11 11 13 12 11 11 12 11 10 11 12 13 13 15 18 20 23 22 23 25 24 21 20 20 24 31
22 20 20 19 18 21 20 18 17 18 21 16 15 14 14 13 13 15 13 13 13 13 12 13 12 12 12 11 12 12 12 13 14 18 21 24 25 21 23 24 22 22 19 19 35
23 22 20 19 20 21 20 18 19 20 20 16 14 15 14 15 14 13 14 16 16 17 17 17 18 16 15 11 10 12 13 14 17 20 19 21 21 18 19 22 22 21 19 22 30
22 21 21 19 22 20 20 20 22 20 19 18 17 17 15 16 14 14 14 16 18 21 20 16 21 18 16 15 15 15 19 20 21 21 19 18 17 16 18 20 22 26 30 32 28
24 22 20 20 19 20 20 22 25 22 18 19 19 17 17 16 16 14 15 17 21 20 20 20 19 24 21 22 24 25 20 21 23 20 17 17 20 18 17 26 30 29 28 30 34
29 29 27 25 20 19 21 24 24 23 20 20 19 21 20 20 15 16 17 16 18 21 24 21 22 20 19 30 29 25 21 18 18 19 18 16 20 26 24 25 27 28 33 37 40
30 31 30 25 26 23 22 23 22 21 20 22 23 22 21 22 19 19 17 19 19 22 22 20 24 25 25 25 27 33 31 23 23 25 25 22 25 26 27 30 28 25 37 46 37
31 30 33 26 25 27 27 26 25 26 23 25 26 24 24 25 22 21 20 18 23 25 22 19 25 28 27 29 32 32 36 38 32 36 50 27 22 27 31 36 42 46 57 46 42
34 33 33 26 29 31 28 29 27 26 29 26 25 23 24 27 27 24 23 24 24 23 23 23 24 25 28 29 32 30 48 51 43 52 45 55 49 47 50 44 48 58 44 43 44
35 32 33 29 32 31 31 27 27 28 29 30 32 28 29 27 30 27 27 26 25 26 28 26 25 28 27 31 39 43 44 48 50 43 56 60 38 44 62 72 64 53 42 44 47
34 31 31 34 32 31 30 30 29 29 26 27 29 30 28 32 32 33 30 28 28 29 29 25 29 39 36 35 41 45 45 42 40 42 55 61 52 53 66 71 74 58 55 53 55
36 34 34 32 35 35 32 30 28 30 31 29 28 30 32 34 34 31 30 33 30 31 30 31 37 41 42 38 33 38 37 34 33 39 53 57 57 55 63 69 79 66 75 56 57
38 37 35 31 34 32 32 31 30 27 29 27 33 31 36 34 34 34 34 32 27 24 27 34 39 40 39 39 36 35 35 33 32 32 43 48 44 65 65 64 66 74 69 59 60
42 38 35 33 34 34 32 33 34 31 28 25 26 28 29 31 32 30 25 23 22 26 32 43 46 48 47 48 44 41 37 41 38 55 48 57 57 48 45 58 78 84 71 62 65

GFSSW_prec_cthk_096.txt.gz
RH
10 9 9 9 9 8 8 8 7 6 6 6 6 7 8 8 8 8 7 9 8 8 9 12 17 26 28 29 35 39 35 45 54 65 41 32 30 28 30 41 39 43 42 36 41
10 10 9 9 9 9 8 8 8 7 7 7 6 6 6 7 7 8 9 9 8 7 5 10 16 22 25 25 29 33 36 35 45 47 42 37 34 28 30 35 49 51 50 36 41
7 7 6 6 6 5 4 4 4 5 5 5 6 6 5 5 6 8 8 9 9 9 9 15 19 18 20 18 22 31 30 27 27 32 32 29 31 32 28 30 36 52 48 39 38
6 6 6 5 4 4 4 4 4 4 4 5 5 5 5 6 10 16 10 8 8 8 13 18 19 17 18 19 20 19 18 17 14 13 13 17 25 33 34 28 28 39 45 37 36
7 7 7 6 5 5 5 5 5 5 5 5 5 6 6 7 7 10 9 8 8 8 13 17 16 17 18 20 21 17 15 15 14 13 12 13 18 25 27 26 28 37 49 42 39
8 7 8 7 7 6 7 7 7 7 7 7 7 6 7 8 8 9 10 9 9 9 13 14 16 18 20 18 17 15 16 15 14 13 14 13 11 14 19 22 26 40 46 42 39
8 8 8 8 8 9 9 10 9 9 9 9 8 7 9 10 10 11 12 10 9 12 13 15 16 16 15 15 15 16 19 19 18 16 16 18 17 16 16 19 19 26 39 45 41
12 10 9 9 10 10 9 10 10 9 9 9 8 8 12 11 9 8 10 14 14 16 15 14 13 12 11 11 13 14 13 16 15 17 18 18 18 17 14 13 15 20 28 38 43
14 12 11 11 11 10 10 10 10 10 9 9 12 13 15 11 9 10 9 9 10 12 12 10 11 10 11 11 11 13 16 16 18 15 18 19 21 21 17 16 15 18 27 34 38
17 15 14 13 12 12 12 11 11 11 10 13 12 17 17 13 11 10 10 10 11 11 11 11 15 14 13 14 13 14 15 15 16 17 17 17 21 22 21 19 18 18 16 16 18
17 17 16 16 15 14 13 12 14 17 14 13 14 13 12 12 11 12 11 10 10 11 11 13 16 18 16 16 17 16 16 16 15 15 16 18 17 21 22 22 21 19 20 16 17
18 17 17 16 15 15 16 15 14 15 13 13 12 12 13 12 12 13 12 12 13 12 12 13 13 13 14 15 15 14 15 13 12 12 16 19 18 19 19 21 22 22 21 19 20
19 18 18 17 18 18 18 16 15 15 15 15 14 13 13 12 13 13 13 13 13 13 14 14 14 14 12 13 12 12 12 12 13 14 15 16 15 17 20 23 23 24 22 19 20
21 19 18 17 22 20 21 18 17 16 18 16 14 14 12 13 14 14 13 12 11 12 13 14 12 12 13 13 13 13 12 12 11 12 12 16 17 18 21 22 23 22 21 20 20
23 21 20 18 17 22 19 17 17 18 24 17 15 14 13 13 14 13 15 13 14 15 14 13 14 14 15 14 14 12 11 11 12 12 12 14 18 16 21 23 24 26 24 21 21
23 20 20 20 22 21 18 18 19 22 23 18 16 15 14 14 15 15 14 15 17 17 19 20 19 18 19 18 15 14 14 13 13 16 18 17 19 18 18 20 20 21 23 25 22
25 22 19 17 20 18 19 20 23 24 21 19 18 16 16 16 16 15 16 16 20 21 21 18 22 23 20 18 18 20 22 24 21 19 19 17 18 18 17 17 19 25 41 36 29
29 26 24 23 21 19 18 23 26 25 22 19 19 18 17 17 17 17 15 17 21 22 21 23 20 21 20 20 17 25 27 27 27 22 19 17 19 23 21 22 21 26 33 38 32
29 29 30 28 24 23 25 24 24 23 20 20 18 19 21 22 20 18 20 19 19 21 24 22 20 17 18 21 21 24 26 29 29 22 20 18 18 23 32 30 37 31 38 41 42
28 27 28 27 24 25 27 27 26 23 22 20 21 23 24 24 24 22 22 21 20 22 23 21 21 18 20 22 21 27 30 37 34 40 38 31 35 53 47 41 43 52 63 69 57
27 28 26 28 23 24 26 27 27 26 26 25 26 27 26 27 27 23 23 22 24 25 24 21 22 21 18 20 24 30 37 41 42 40 57 54 40 44 46 46 44 52 64 76 56
28 29 26 27 25 29 30 28 27 25 25 28 27 25 26 26 28 28 27 26 28 25 24 26 22 23 19 16 26 36 42 39 38 37 40 54 40 37 43 46 49 46 57 74 69
27 26 25 25 25 27 32 27 27 26 26 29 32 32 31 31 32 31 31 29 27 26 30 27 24 23 19 23 38 43 43 44 44 40 42 70 63 47 46 44 44 42 45 66 87
28 25 29 26 26 26 28 29 30 27 28 27 26 30 31 32 31 34 35 33 34 33 30 28 29 30 33 34 34 37 36 38 41 43 44 63 55 50 49 49 43 41 41 58 90
33 32 29 29 28 29 29 29 29 30 29 30 31 31 31 34 34 37 33 36 38 40 31 29 30 29 29 29 33 30 29 29 34 35 36 30 48 59 60 57 54 62 67 72 87
36 33 32 29 29 30 29 26 27 29 29 29 29 30 34 38 41 35 33 37 36 27 24 26 30 35 35 34 38 37 38 37 35 36 31 40 71 75 59 65 58 60 67 73 85
40 38 35 32 30 30 32 31 30 30 30 30 29 29 31 36 34 33 30 27 23 21 22 28 36 44 41 41 40 43 56 53 54 50 52 58 68 63 63 60 51 50 60 87 79

GFSSW_prec_cthk_102.txt.gz
RH
8 6 6 5 5 5 5 5 5 5 5 6 6 5 5 5 5 6 6 7 7 7 7 7 8 10 15 22 28 34 37 45 52 54 48 37 33 30 28 50 47 50 45 46 42
7 5 5 5 5 4 3 3 3 2 3 3 4 4 5 5 5 5 5 6 7 8 8 8 7 12 16 17 21 28 30 29 33 32 32 32 31 29 28 40 48 51 45 49 44
8 6 6 6 5 5 4 4 4 4 3 3 4 4 4 4 4 6 8 6 6 7 8 8 9 15 17 18 19 23 22 22 24 24 24 23 24 26 25 36 36 44 46 46 40
11 9 7 7 7 6 6 6 6 6 6 5 5 5 5 6 5 9 9 9 8 8 8 8 12 15 16 16 17 19 20 21 18 20 18 19 16 15 21 25 24 33 39 37 35
11 11 9 8 8 8 8 8 8 8 8 7 7 6 6 6 6 8 8 8 7 8 7 8 14 17 17 15 16 18 17 17 16 15 14 14 13 15 14 14 19 24 29 30 35
12 11 10 9 9 8 8 8 9 9 9 8 8 7 7 8 8 9 9 9 8 8 8 11 14 17 17 16 17 15 14 13 10 12 14 16 16 18 19 19 22 25 26 30 30
12 12 11 10 10 9 9 9 8 8 8 8 8 8 7 7 10 11 10 9 11 9 8 9 12 17 14 14 14 13 12 10 10 14 17 17 18 20 19 19 20 26 28 29 34
12 12 12 11 11 10 10 9 9 9 8 8 8 8 9 11 10 10 10 10 10 13 12 13 16 15 13 13 12 12 10 12 14 15 16 17 17 18 20 19 22 26 30 29 32
14 13 12 12 12 11 11 10 10 10 9 9 12 13 13 12 12 10 10 9 10 11 13 14 13 12 12 14 15 15 15 14 14 14 14 16 16 17 19 20 21 29 30 29 31
16 14 13 12 12 12 12 11 11 13 12 12 14 15 14 13 11 11 11 10 10 10 10 11 12 12 14 16 19 16 16 15 14 12 13 13 13 14 18 20 22 23 28 30 31
19 16 14 12 14 14 12 12 11 14 14 12 14 13 13 12 12 12 12 11 11 11 12 12 12 14 14 15 15 15 16 16 15 14 13 12 11 10 14 18 20 21 25 30 31
20 19 15 14 15 16 15 14 15 15 14 12 11 13 12 13 12 12 12 12 13 13 13 14 15 14 14 14 15 16 17 16 14 13 12 12 12 9 8 15 18 20 20 23 29
21 20 17 15 17 18 18 17 15 14 14 14 13 12 12 12 12 12 13 13 13 14 14 15 13 14 15 14 15 15 16 15 14 13 12 12 11 11 12 9 11 18 20 20 19
22 20 18 16 15 18 18 16 15 15 19 16 15 14 13 13 14 13 14 14 14 13 13 14 15 16 16 17 16 16 16 15 14 14 14 12 15 15 15 17 20 24 25 27 28
24 23 21 17 16 17 16 15 16 17 23 15 15 15 15 15 15 14 14 14 15 16 16 18 19 19 19 20 18 17 16 16 17 18 16 15 17 21 27 32 34 35 36 36 35
27 25 23 20 17 18 15 16 15 21 22 16 14 15 16 16 15 15 15 15 14 15 17 19 20 21 20 19 19 18 17 19 19 20 23 18 21 33 38 38 35 37 39 39 42
27 25 23 21 19 18 18 20 24 26 19 16 15 16 18 17 16 16 15 15 16 17 18 20 21 22 21 20 20 20 21 24 24 26 26 21 24 39 39 39 38 35 38 39 44
26 24 22 20 19 20 21 24 28 26 20 17 18 19 18 16 16 16 16 17 19 20 23 23 24 22 23 22 21 19 20 28 30 32 28 25 28 38 37 41 43 42 38 38 39
24 22 21 20 19 19 19 26 28 25 25 23 23 24 25 22 19 19 19 21 22 21 23 24 23 21 21 17 18 19 20 24 30 32 34 33 34 37 40 45 44 44 44 44 40
18 18 20 20 20 19 20 26 25 23 23 25 27 27 29 28 26 25 25 25 25 24 23 24 26 23 21 17 14 22 23 32 37 38 41 36 34 40 34 37 40 38 43 46 43
15 15 16 17 19 20 23 24 25 23 22 24 25 25 26 28 28 29 30 29 29 28 27 27 28 26 23 21 24 23 29 38 39 43 44 48 38 38 46 48 48 48 49 44 36
16 17 17 17 19 21 23 24 23 25 22 21 22 24 25 27 28 29 30 31 31 30 29 28 29 30 26 23 26 29 31 39 47 45 45 44 41 45 49 51 47 50 50 43 44
16 19 19 19 21 22 24 25 24 23 21 22 22 23 25 27 29 27 28 29 31 32 30 29 31 35 33 26 24 31 32 36 42 46 49 54 50 47 53 52 46 46 45 46 47
20 26 25 23 25 24 25 25 26 25 23 22 22 23 23 25 27 28 28 29 31 31 32 32 36 35 38 33 31 25 24 30 36 42 42 51 50 54 64 63 54 53 55 51 44
25 29 29 28 29 28 26 24 27 29 29 27 25 23 24 25 27 28 28 30 31 33 35 36 35 35 36 32 26 32 37 43 46 52 59 59 59 62 68 65 60 58 59 59 58
28 31 29 29 30 31 30 28 28 27 27 26 27 26 26 26 24 24 26 29 31 35 36 37 35 35 30 27 34 39 47 46 50 55 62 64 66 64 64 64 66 59 61 60 57
33 35 33 27 26 27 28 31 30 31 27 27 26 26 26 27 26 26 28 27 28 28 29 29 26 28 31 34 43 49 51 52 57 62 68 72 71 70 70 70 69 63 60 52 52

GFSSW_prec_cthk_105.txt.gz
RH
8 7 6 5 5 5 4 4 3 3 3 3 4 5 5 5 5 5 6 7 7 7 8 8 8 9 12 19 27 32 34 35 43 46 40 34 33 31 33 30 44 54 59 49 48
10 8 7 6 6 5 4 4 3 3 3 3 3 3 4 4 5 5 5 6 6 7 9 9 8 9 12 18 23 28 29 29 29 32 28 24 32 29 29 29 42 37 52 49 46
10 10 9 7 7 7 6 6 6 6 6 5 5 4 4 4 4 6 8 7 6 7 8 9 8 12 16 18 21 23 22 22 22 20 19 19 19 26 23 25 37 32 40 45 38
10 10 10 8 8 8 7 7 7 8 8 7 6 6 6 5 5 8 8 9 8 7 8 9 9 14 15 16 19 20 19 18 16 17 17 19 16 14 17 21 21 25 33 32 32
11 10 10 9 9 8 8 8 8 9 9 8 8 7 7 6 6 8 9 8 8 8 9 9 13 16 18 17 15 16 14 14 14 15 17 17 16 14 14 20 23 25 28 28 28
11 10 10 10 9 9 8 9 8 8 8 8 8 8 7 8 9 9 9 9 9 9 9 10 16 20 17 14 14 13 12 11 11 12 13 15 15 19 21 21 19 23 26 28 30
12 11 10 10 10 9 9 9 8 8 8 8 8 8 8 7 10 10 10 10 11 11 9 10 13 16 16 13 14 14 12 10 12 15 16 15 17 17 18 19 19 23 27 31 33
15 12 11 11 10 10 10 10 9 9 9 8 8 9 9 11 11 11 11 10 11 13 12 11 13 16 14 12 13 13 14 15 16 16 17 14 17 18 19 18 19 24 26 30 31
18 15 12 11 11 11 11 10 10 11 10 10 11 12 13 12 12 11 10 10 10 11 13 15 14 14 13 14 16 16 15 15 17 16 17 16 14 13 17 16 21 23 27 31 33
19 17 14 12 12 12 11 11 11 11 13 12 12 14 13 12 12 11 11 11 10 10 11 12 13 16 15 16 18 17 16 15 15 14 13 13 12 11 11 17 20 24 29 31 33
20 18 16 13 14 14 12 11 11 12 12 12 14 13 13 12 12 12 12 12 12 12 13 13 14 15 15 15 15 16 16 16 14 13 13 13 11 10 11 14 24 26 28 31 31
20 19 18 14 15 15 14 14 15 15 14 12 11 12 12 12 13 12 13 12 12 13 13 14 15 14 15 15 15 16 18 17 15 14 15 14 11 12 15 19 22 30 32 28 30
21 20 19 16 14 15 16 15 15 14 15 14 13 12 11 11 12 13 13 13 14 14 14 15 14 15 16 17 17 18 19 18 17 14 15 13 12 16 21 21 23 25 33 36 31
24 21 20 17 14 14 15 14 14 14 20 16 15 13 13 13 14 14 14 14 14 15 14 15 17 17 18 18 18 19 18 17 16 16 18 15 18 16 24 23 22 24 29 33 34
26 23 21 20 18 15 16 15 14 15 22 15 14 14 15 16 15 15 15 16 15 14 15 17 18 20 20 20 20 20 19 18 17 18 18 17 19 24 29 28 27 27 31 34 35
27 24 21 20 18 17 16 18 17 21 19 14 13 14 15 16 16 16 16 16 16 15 15 17 19 21 21 21 21 21 21 21 22 22 22 18 20 24 31 31 33 31 31 32 35
26 23 21 19 18 17 18 20 24 27 19 16 15 16 17 17 15 14 15 16 16 15 17 20 21 21 21 22 22 22 22 27 25 27 26 21 24 30 33 37 39 41 40 38 36
26 22 21 19 18 18 19 22 26 24 22 19 18 18 18 17 16 15 14 16 18 18 22 23 24 23 23 22 21 21 21 27 33 35 31 25 28 34 34 40 39 40 44 41 42
21 18 19 19 19 18 18 23 24 23 22 21 21 23 24 22 22 21 21 23 22 22 23 25 24 23 24 24 22 21 21 22 31 33 36 32 29 28 31 33 36 38 40 37 38
14 12 17 18 17 18 18 24 23 21 22 22 23 23 25 27 26 25 24 24 24 24 24 26 26 26 26 25 23 24 24 32 38 38 41 38 34 36 31 36 42 48 50 47 43
13 12 15 15 16 17 20 22 22 21 20 20 22 24 25 25 27 27 27 26 26 26 26 26 27 27 27 28 28 29 32 35 37 42 47 51 43 36 40 39 38 41 49 47 48
13 15 15 16 17 20 21 22 23 22 20 20 21 22 23 25 26 26 28 27 27 27 28 27 30 31 29 30 28 28 30 35 46 44 45 45 42 44 49 48 43 49 50 49 44
15 16 17 17 22 21 22 23 24 24 22 21 20 19 21 23 25 26 27 27 27 27 29 29 31 36 34 33 31 31 31 34 44 48 49 55 47 49 52 54 56 60 61 56 48
18 21 23 21 23 22 23 23 25 25 23 23 20 21 22 22 24 25 27 28 28 28 28 29 34 35 40 36 34 33 29 26 35 44 44 47 45 48 52 53 58 63 67 64 58
21 24 28 31 30 27 24 25 26 29 27 25 24 22 22 24 23 24 24 24 24 27 27 30 34 36 36 36 35 32 32 33 43 44 51 44 53 54 58 61 66 69 74 72 71
27 26 27 30 30 29 29 29 27 26 27 30 27 26 25 25 24 23 22 23 23 25 27 30 33 34 33 31 25 30 31 40 45 50 54 58 61 61 63 64 68 71 70 68 67
29 32 30 30 30 30 31 32 30 29 26 26 25 27 27 24 24 25 24 23 22 22 21 26 31 32 31 23 31 34 36 48 51 54 56 63 61 63 70 69 69 69 69 66 62

GFSSW_prec_cthk_111.txt.gz
RH
10 9 9 8 7 7 6 5 5 4 4 4 3 3 4 5 5 5 5 6 6 7 7 9 10 10 15 19 21 25 24 24 24 30 37 37 34 27 24 26 36 31 30 40 47
11 10 9 9 8 8 8 7 7 7 7 7 6 4 3 3 4 5 5 5 5 7 8 9 9 9 12 16 21 22 21 19 20 21 27 33 38 33 29 25 27 24 26 34 39
12 11 10 9 9 9 8 8 8 8 9 8 8 6 5 4 5 7 7 7 6 6 8 9 9 10 15 19 22 22 21 18 15 14 14 16 29 30 20 21 22 20 25 30 32
14 12 10 9 9 9 9 8 9 9 9 9 9 8 6 5 9 8 8 8 8 8 8 9 10 12 16 18 20 19 17 16 13 13 15 15 15 15 15 15 16 16 24 26 29
16 14 11 10 9 9 9 9 9 8 8 9 8 8 7 6 8 10 10 9 9 8 9 9 11 13 17 17 15 16 14 12 13 13 12 12 12 13 14 14 13 16 21 24 27
18 16 13 10 10 10 10 9 9 9 8 8 8 8 7 8 9 10 11 11 10 10 10 10 13 17 18 16 14 13 12 11 12 13 13 14 14 13 13 13 14 17 21 26 29
18 17 15 12 11 11 10 10 9 10 9 8 8 7 7 10 11 11 11 12 12 12 11 14 19 18 15 14 13 13 12 12 13 14 14 15 14 15 17 14 14 19 24 27 29
18 17 16 14 11 11 11 10 10 10 10 10 10 8 9 11 12 12 12 13 13 13 12 12 13 14 13 14 16 15 15 15 14 14 14 16 16 18 20 19 18 20 22 27 30
19 17 16 15 13 12 11 10 10 11 11 11 11 12 12 12 12 12 12 14 14 14 14 15 14 14 16 15 14 16 15 15 15 15 15 15 16 19 21 21 21 19 21 25 31
20 18 16 15 13 12 11 11 11 11 12 11 11 14 13 13 12 12 12 13 13 13 14 14 15 16 16 15 15 15 15 15 16 15 15 16 20 20 18 19 20 19 19 24 30
20 18 17 15 13 12 12 11 11 12 11 11 13 14 13 13 12 12 12 12 13 13 13 14 14 14 15 16 16 16 17 17 15 15 16 16 18 18 18 19 20 19 21 23 27
20 19 18 15 14 13 12 12 12 12 13 12 12 12 12 13 13 13 13 13 13 14 15 15 15 16 16 17 17 17 18 18 17 16 16 15 19 18 18 19 19 19 20 22 23
21 20 18 16 15 15 13 12 12 13 14 13 13 12 12 13 13 13 13 14 15 15 15 16 17 18 18 19 19 19 20 20 19 17 16 16 17 20 19 20 19 19 20 20 21
23 22 20 18 17 15 15 14 14 14 15 13 13 13 13 13 13 14 14 16 16 16 17 17 18 19 20 21 21 22 21 20 19 20 20 18 18 18 20 21 21 21 21 22 22
23 22 20 18 17 15 15 15 16 15 17 14 14 13 13 14 14 14 15 16 17 17 18 18 19 19 20 21 21 21 22 21 21 20 19 20 19 17 20 23 24 23 22 21 22
22 22 21 19 18 16 15 16 17 18 18 15 14 14 15 15 15 15 16 16 17 18 18 18 19 20 20 20 22 22 22 22 22 20 19 21 20 17 21 22 23 21 22 22 23
19 19 19 19 18 18 16 16 18 20 18 17 17 17 17 18 18 17 16 17 17 18 19 19 19 20 22 22 23 23 22 21 22 21 19 22 21 19 23 25 24 21 21 24 24
10 12 14 16 17 18 17 17 21 20 18 18 18 19 19 20 20 19 18 20 21 20 22 23 25 23 24 26 26 25 23 22 24 22 20 25 23 24 26 27 25 25 25 28 29
8 9 13 14 15 16 16 16 19 19 19 19 19 20 21 22 22 22 22 23 23 23 23 24 25 26 27 27 26 26 26 24 28 31 29 26 24 23 27 28 28 27 28 29 31
5 6 11 12 13 14 14 16 18 18 18 18 19 20 22 22 22 23 24 24 24 24 24 26 27 27 27 27 26 25 26 26 27 33 32 27 29 22 24 25 29 31 31 35 37
5 6 11 12 12 12 13 16 18 18 18 18 18 20 22 23 25 26 27 28 28 27 27 27 27 28 27 27 27 26 26 29 29 32 30 31 27 23 23 30 34 35 38 40 40
8 7 10 11 12 15 15 17 19 19 18 17 18 19 20 22 24 26 28 29 28 28 28 28 28 28 27 27 27 26 28 28 31 34 32 32 26 22 28 32 37 39 40 41 45
13 10 11 13 14 15 17 17 19 20 20 19 19 19 19 21 24 25 26 27 27 28 29 29 29 30 30 29 28 30 29 28 29 30 30 34 27 24 31 37 40 43 43 47 50
15 16 18 17 17 17 19 19 19 21 22 23 22 21 22 23 23 24 22 23 24 25 25 25 27 29 30 29 28 30 27 26 26 25 22 25 25 27 35 40 42 49 48 52 56
20 22 25 27 25 22 20 21 21 22 23 24 25 24 24 25 25 23 23 22 23 24 24 23 26 26 23 24 26 24 23 22 24 21 26 20 29 35 42 46 48 49 50 54 58
21 26 27 27 30 27 26 25 23 23 24 24 25 26 26 27 25 25 24 25 25 24 22 23 24 24 23 21 22 22 20 19 20 21 26 32 39 43 49 54 54 56 58 59 64
23 26 28 29 28 26 27 29 27 25 25 26 27 27 27 28 29 27 26 26 25 21 20 20 20 23 21 19 20 22 17 20 28 36 43 47 45 50 55 54 56 58 64 71 72

GFSSW_prec_cthk_114.txt.gz
RH
10 9 9 8 7 7 7 6 6 5 5 5 4 3 3 4 5 5 5 6 6 7 7 8 10 12 16 19 18 22 21 25 27 23 27 32 36 30 28 30 29 29 29 34 37
12 11 9 8 8 8 8 8 7 7 8 7 6 5 4 4 4 5 5 5 5 6 8 10 10 10 15 15 18 22 19 19 20 17 20 26 28 32 30 26 25 26 31 32 32
14 12 10 9 9 9 8 8 8 8 9 9 8 7 5 4 5 6 7 6 5 6 9 11 11 11 14 18 21 22 19 19 16 14 13 18 20 22 22 23 17 18 30 33 34
16 15 12 10 9 9 9 9 9 8 9 9 9 8 6 6 10 8 7 7 7 8 9 10 11 13 15 18 19 18 17 15 14 13 13 12 12 13 17 16 14 16 21 32 33
17 16 14 12 10 10 10 9 8 8 8 8 8 8 7 7 9 9 9 9 8 9 10 10 12 13 15 18 16 15 14 12 12 12 11 11 12 12 13 14 15 17 22 30 32
18 16 15 13 10 10 10 9 9 9 8 8 8 8 7 8 10 11 10 10 10 10 10 11 12 15 18 16 14 13 12 11 12 12 12 13 12 13 15 15 16 20 23 28 33
18 17 15 14 11 11 11 9 9 9 8 8 7 7 9 9 10 11 12 12 12 11 11 12 16 19 16 15 12 13 12 12 13 13 13 13 15 15 16 17 17 20 24 28 31
18 17 15 14 12 11 10 10 10 10 10 10 8 7 9 11 11 12 12 14 13 12 13 15 16 16 14 13 15 14 13 16 15 13 13 14 19 16 18 19 20 20 24 26 32
19 17 16 13 12 11 10 10 10 10 11 11 10 11 11 12 12 12 12 15 14 14 13 13 14 15 15 16 15 15 16 15 15 14 14 14 17 17 19 20 22 22 22 29 31
18 18 16 14 13 12 11 10 10 10 11 11 11 14 12 13 12 12 13 14 13 14 15 15 15 16 15 15 17 16 16 16 16 16 15 16 18 18 17 18 18 21 23 23 28
19 18 17 14 13 12 11 11 12 12 11 12 13 14 13 12 12 12 12 13 13 12 14 13 14 15 16 15 15 15 16 16 17 16 17 18 17 17 16 17 17 19 22 24 24
19 19 17 15 14 13 12 12 12 12 13 12 12 13 13 12 13 13 13 13 13 14 14 14 16 16 15 16 16 16 17 19 18 17 17 18 19 19 17 16 16 17 20 22 23
20 19 18 16 15 13 14 12 12 13 14 12 12 12 13 13 13 13 13 13 14 15 15 17 18 17 17 17 17 18 19 20 19 18 18 17 19 23 19 17 18 18 18 20 21
19 19 19 17 16 14 14 14 14 14 14 12 12 12 12 13 13 13 13 14 15 16 16 18 17 18 19 19 19 22 19 19 19 19 21 20 18 21 19 19 20 19 19 20 20
18 19 18 17 17 16 14 14 15 15 19 13 13 13 13 13 13 13 14 15 17 17 18 20 19 20 21 20 20 20 19 19 18 18 19 19 18 26 20 22 25 23 21 19 19
13 15 16 17 17 17 15 15 16 18 18 14 14 13 14 14 15 15 15 15 16 17 17 19 18 19 20 19 20 20 21 20 21 19 20 21 17 18 22 24 25 23 21 21 20
9 9 12 15 18 17 16 16 18 18 17 15 15 15 16 17 17 16 17 17 17 19 19 19 19 19 19 21 22 22 21 22 23 23 21 22 17 18 23 22 22 22 21 22 25
8 9 11 13 14 15 17 17 20 19 17 16 16 17 18 18 19 18 18 19 18 18 20 23 27 24 23 24 25 24 22 23 23 22 21 22 21 28 21 23 23 24 25 25 28
7 7 10 12 13 13 15 16 18 18 16 17 17 18 19 19 20 20 20 21 21 22 24 24 26 24 24 25 25 27 26 20 22 25 23 22 25 22 23 25 27 26 28 30 31
5 6 9 10 10 11 13 14 16 15 16 15 17 17 19 19 20 21 22 21 21 21 22 25 27 25 25 24 25 24 22 25 26 28 26 21 25 28 29 28 26 27 35 36 36
6 8 9 10 9 11 12 14 14 14 15 16 17 18 19 20 20 23 24 23 23 23 23 25 25 30 25 27 25 25 25 25 21 25 25 21 24 28 26 25 29 29 34 35 34
9 9 9 9 12 11 13 14 15 15 15 15 16 18 19 20 23 24 26 26 24 24 27 26 25 26 29 26 22 22 24 24 24 29 29 27 25 26 23 27 31 34 37 38 38
13 11 10 10 12 14 15 15 16 17 17 17 17 17 18 20 23 23 25 24 25 25 28 28 26 28 30 30 29 26 25 24 23 24 24 24 21 27 25 28 40 42 41 39 41
16 17 19 16 16 16 18 18 17 18 19 19 18 18 19 21 21 24 24 23 23 23 22 22 24 27 23 26 30 27 24 25 26 26 22 23 20 18 23 38 42 44 43 47 50
20 23 22 27 25 22 20 21 19 20 20 20 21 21 23 25 24 23 24 22 21 22 23 23 25 24 25 23 21 21 22 21 21 21 24 20 21 23 35 44 47 48 51 53 52
23 25 24 24 26 26 27 24 20 24 21 23 23 23 22 25 26 26 24 24 26 28 26 25 23 21 21 20 21 21 19 18 17 19 20 20 26 51 48 47 53 53 54 55 53
23 23 23 24 24 23 27 29 25 25 25 25 24 24 25 28 26 25 26 27 27 26 28 24 19 22 22 20 21 20 19 19 19 23 28 43 46 42 44 50 53 56 58 56 58

GFSSW_prec_cthk_117.txt.gz
RH
12 11 10 8 8 7 7 6 6 5 5 5 4 4 4 4 5 5 6 7 6 6 7 9 10 12 16 20 20 22 31 29 29 26 27 27 30 34 33 29 28 33 35 37 33
15 13 11 10 8 8 8 8 8 7 7 7 7 5 4 3 4 6 7 5 5 6 7 11 10 11 16 18 22 28 35 25 21 20 20 20 22 24 27 30 26 22 32 36 31
16 15 13 11 9 9 9 8 8 8 9 9 8 7 5 4 6 9 6 5 5 5 10 11 12 11 15 18 25 29 25 23 20 15 13 13 16 17 17 21 20 19 25 36 37
17 15 14 12 10 10 10 9 8 8 8 9 9 8 6 6 13 9 7 7 6 6 10 11 11 12 15 19 23 22 24 16 14 12 12 11 12 12 14 16 15 17 17 33 35
17 16 14 13 10 10 10 9 8 8 7 8 8 8 6 9 10 8 8 8 7 9 11 10 11 13 17 18 18 18 16 14 13 12 11 10 12 12 16 16 17 19 20 34 37
17 16 14 13 11 10 10 9 9 8 8 7 8 8 7 10 10 10 9 9 10 11 11 11 12 13 18 18 16 14 12 11 12 12 11 14 13 17 18 17 21 25 28 33 39
17 16 14 13 12 10 10 10 9 9 8 7 7 7 11 11 12 11 12 12 12 12 12 11 13 17 21 17 14 12 12 13 13 12 14 13 17 19 18 21 22 25 29 31 36
18 17 15 13 12 11 10 10 10 10 10 9 7 9 11 10 13 11 13 13 13 12 14 13 18 20 17 14 14 14 14 17 15 13 13 14 26 21 19 26 27 25 29 32 33
18 17 15 13 12 11 10 10 10 10 10 9 8 13 11 10 12 13 13 15 14 14 14 13 14 16 15 15 16 15 17 18 16 14 13 13 21 20 21 26 29 28 24 28 35
18 17 16 14 12 12 10 10 10 10 10 10 11 15 13 13 12 13 13 15 15 15 15 14 15 16 16 17 19 19 17 16 16 16 14 16 20 23 19 24 26 25 25 29 27
18 17 16 14 13 12 11 13 14 14 11 12 13 15 13 13 11 12 13 14 12 13 15 14 15 19 20 16 15 15 16 17 18 15 14 17 20 19 19 20 21 25 25 27 26
18 18 16 15 14 12 12 12 11 13 13 11 12 12 13 12 12 12 13 14 12 14 13 14 17 17 15 14 14 15 18 22 21 19 16 20 21 23 22 19 21 23 24 26 26
16 17 16 15 15 14 14 12 12 12 15 12 11 12 12 12 13 12 13 13 13 15 15 19 20 17 15 17 16 19 19 22 21 20 18 20 22 26 26 23 23 25 26 27 23
14 14 16 16 18 15 15 14 14 14 15 12 11 11 12 12 12 12 12 13 14 17 16 17 18 17 18 18 17 23 20 18 17 19 21 24 22 27 31 26 24 25 27 29 24
12 12 13 15 16 17 15 14 15 15 23 16 11 11 11 13 13 12 13 13 16 16 16 22 18 18 18 21 17 20 17 16 17 18 18 20 21 28 28 27 29 28 26 26 21
9 10 10 14 16 17 16 15 16 17 21 15 12 12 12 13 13 14 13 14 16 16 16 18 17 17 20 18 16 15 16 18 21 23 22 21 22 18 27 32 33 28 26 25 23
8 8 8 11 18 16 16 17 19 18 22 16 13 13 14 15 15 15 15 15 17 18 22 20 19 17 17 18 21 21 21 23 22 22 21 26 25 19 28 28 26 25 25 25 27
7 7 7 10 11 13 16 18 20 22 21 16 15 15 16 17 18 17 17 18 18 18 20 24 29 27 22 21 24 22 22 23 29 21 19 26 25 35 25 26 25 23 26 25 30
6 9 11 13 11 12 15 18 19 21 19 16 15 16 17 19 18 19 18 19 22 19 22 27 29 28 23 21 21 32 26 24 17 17 23 22 28 31 29 28 29 28 27 34 36
5 8 10 11 10 11 13 14 18 18 15 13 15 17 19 23 19 19 23 21 21 20 20 25 27 30 25 22 21 22 24 20 28 31 29 23 24 27 36 35 34 30 29 31 35
8 11 16 10 9 11 12 14 15 15 12 13 14 19 18 23 22 25 28 27 21 21 20 23 27 28 29 25 26 31 26 27 23 21 28 31 25 29 30 30 30 28 29 37 36
9 12 16 9 13 13 14 15 15 13 13 12 14 17 22 22 23 21 26 28 24 22 23 26 25 28 33 34 27 23 19 22 25 27 32 27 22 25 27 26 27 29 40 43 40
13 11 11 9 12 14 16 15 13 14 15 16 15 15 17 21 23 24 26 28 23 21 25 27 26 24 27 28 32 32 26 22 24 26 25 27 26 30 27 26 30 44 48 45 40
17 17 23 16 15 18 22 22 20 16 16 15 16 17 18 18 23 27 24 25 21 22 21 21 19 21 25 30 33 32 32 28 26 27 26 24 24 24 25 25 32 46 45 41 45
24 25 25 29 27 21 20 22 23 23 20 20 19 18 18 20 23 25 27 29 24 23 19 19 23 24 24 24 19 19 18 18 21 23 25 22 22 23 25 35 44 46 47 50 52
26 31 29 20 27 27 24 20 21 21 28 26 22 25 23 23 26 30 28 28 30 31 26 25 28 26 23 18 18 17 15 15 16 17 20 20 21 28 43 44 46 48 47 49 52
29 25 21 20 24 21 22 30 30 25 30 24 31 28 27 25 27 29 26 28 30 29 31 30 29 28 22 20 22 21 18 19 20 20 21 24 33 46 47 44 42 44 47 52 56

GFSSW_prec_cthk_123.txt.gz
RH
15 14 12 11 8 7 7 7 6 6 5 5 5 4 4 4 4 4 4 4 5 5 5 6 7 8 15 30 38 40 44 39 28 28 23 19 20 25 28 36 35 30 29 29 35
16 15 13 11 9 9 8 8 8 7 7 7 6 6 5 4 3 3 4 4 5 6 6 7 11 12 16 19 25 35 42 34 26 18 15 13 15 18 23 33 35 33 31 31 36
16 15 13 12 10 9 9 8 8 7 7 8 8 7 5 5 7 8 6 5 5 5 5 9 13 14 15 17 21 25 29 24 18 13 11 11 14 15 18 21 27 28 29 31 34
16 15 13 12 11 9 9 8 8 7 7 8 8 8 6 10 14 9 5 6 5 5 5 10 11 14 16 18 20 25 19 19 14 11 10 11 12 15 15 17 28 28 27 29 34
17 15 13 12 11 10 9 9 8 7 7 7 7 8 6 9 11 8 6 6 5 6 7 11 12 13 14 15 18 21 17 15 12 10 11 12 15 15 18 24 32 37 30 32 36
16 15 14 12 11 10 9 9 8 8 7 7 7 7 6 14 11 9 7 7 6 6 7 10 12 13 14 16 18 17 16 12 11 13 13 14 16 19 22 24 28 40 42 41 37
16 15 14 12 11 11 9 9 8 9 8 6 7 6 9 12 10 8 8 8 8 9 10 11 11 12 14 17 17 16 14 14 14 15 15 15 20 22 26 27 29 31 48 48 49
16 15 14 13 11 10 9 9 9 9 9 6 6 7 12 9 10 9 11 11 11 11 12 12 13 11 13 17 18 17 18 18 16 18 17 19 24 28 32 29 26 29 30 42 55
16 15 14 13 11 10 10 9 9 9 9 7 8 12 15 9 10 10 12 13 12 12 11 12 13 13 16 19 21 22 22 21 20 18 16 17 25 29 27 26 24 26 33 33 40
15 14 14 14 12 11 10 11 10 9 9 7 11 15 16 11 10 11 11 13 14 14 12 13 12 15 18 20 23 23 20 21 19 18 15 17 23 25 26 26 28 30 31 34 28
14 13 13 13 13 11 11 12 13 15 10 10 13 13 11 11 11 11 11 12 13 13 14 15 17 19 20 20 17 20 19 19 19 18 16 17 25 23 25 27 29 32 32 29 29
13 12 12 13 13 12 12 11 11 13 13 10 11 12 13 11 10 10 12 12 12 12 13 16 19 18 18 19 18 15 19 19 18 20 19 17 20 22 24 26 29 31 34 32 28
11 11 11 12 15 14 14 13 12 12 12 10 10 10 12 11 10 11 11 13 13 14 15 17 18 20 20 17 16 19 19 20 24 23 17 20 22 26 28 28 31 33 33 30 28
10 10 9 11 15 15 15 13 13 13 14 12 11 9 10 12 11 11 11 12 13 14 16 18 17 19 19 18 19 22 21 21 20 21 20 19 23 27 28 30 31 32 30 30 30
9 9 8 9 12 16 16 14 14 14 28 17 16 12 11 11 11 11 11 12 13 14 16 17 21 18 17 19 19 20 18 20 19 15 16 17 23 26 28 31 35 35 29 29 29
8 8 8 8 10 16 15 14 16 18 22 15 13 14 11 11 12 12 12 12 13 14 15 17 16 18 17 15 15 14 15 16 18 25 29 27 28 34 32 32 37 35 35 32 31
7 7 7 8 14 16 15 17 20 22 19 20 18 15 13 11 13 12 13 13 14 15 18 19 20 21 20 21 18 17 22 25 27 37 34 31 32 35 33 35 35 37 35 34 33
7 7 7 7 7 10 15 19 22 20 24 25 22 15 12 13 13 14 15 15 14 16 19 22 28 24 22 23 23 22 21 26 31 40 35 32 30 36 33 35 37 37 36 33 33
6 6 6 7 10 11 15 22 18 22 23 26 23 22 17 15 16 19 18 17 16 17 20 22 28 25 27 25 22 27 22 24 23 26 30 28 29 32 35 37 37 39 38 35 34
6 6 8 9 12 12 15 17 15 18 19 22 20 18 17 19 19 20 21 22 20 22 21 22 25 26 30 26 24 24 22 23 24 25 30 33 35 41 38 37 37 37 37 36 33
6 11 13 11 12 11 16 13 12 17 19 19 21 19 19 19 22 22 23 24 22 24 22 21 23 22 25 28 28 29 27 29 28 29 34 36 41 39 39 39 39 40 39 37 34
8 16 17 17 15 12 12 10 13 16 20 16 14 18 15 18 22 25 27 28 26 26 26 23 23 25 21 25 29 33 32 35 36 30 31 35 38 38 37 37 36 38 38 32 31
11 15 18 19 19 13 13 13 15 16 18 17 14 11 11 14 20 23 29 26 27 31 32 27 29 29 22 22 25 32 33 33 34 37 33 35 34 35 38 37 31 32 33 32 32
15 21 17 15 13 13 14 15 20 18 16 15 16 16 15 14 16 19 26 24 25 27 26 26 28 30 31 26 27 33 34 37 38 37 33 33 31 25 36 39 39 38 40 41 39
21 24 28 31 24 23 21 18 22 23 20 20 17 16 19 20 19 19 19 30 27 27 24 25 29 25 22 19 20 26 27 28 29 29 29 27 25 25 31 34 36 37 39 40 39
35 29 26 30 28 25 24 23 24 23 25 28 25 23 18 21 22 26 25 27 26 26 28 26 28 25 22 19 19 18 19 24 24 23 24 23 21 29 30 30 33 33 34 35 38
31 32 32 29 30 28 25 27 22 21 22 24 30 33 32 29 27 25 26 28 33 32 33 36 38 36 33 30 29 27 19 17 18 18 21 26 34 36 35 35 35 36 34 36 39